Hourly Data Report for October 01, 2016

All times are specified in Local Standard Time (LST). Add 1 hour to adjust for Daylight Saving Time where and when it is observed.

SAINT JOHN A
NEW BRUNSWICK

45°18'58.000" N
65°53'24.000" W
108.80 m
8104901
71609
YSJ

Download Data

Hourly Data (October 2016)
Hourly Data Report for October 1, 2016
Temp Definition
°C
Dew Point Temp Definition
°C
Rel Hum Definition
%
Wind Dir Definition
10's deg

Wind Spd Definition
km/h
Visibility Definition
km
Stn Press Definition
kPa
Hmdx Definition


Wind Chill Definition


Weather Definition


TIME
00:00 Legend Double Dagger 4.3 4.3 100 6 5 24.1 101.77     LegendNANA
01:00 Legend Double Dagger 4.3 4.3 100 6 5 24.1 101.77     LegendNANA
02:00 Legend Double Dagger 4.9 4.9 100 7 5 24.1 101.75     Mostly Cloudy
03:00 Legend Double Dagger 4.9 4.9 100 6 7 24.1 101.71     LegendNANA
04:00 Legend Double Dagger 5.6 5.6 100 7 4 24.1 101.70     LegendNANA
05:00 Legend Double Dagger 5.7 5.7 100 6 5 24.1 101.69     Mostly Cloudy
06:00 Legend Double Dagger 6.0 6.0 100 6 5 24.1 101.69     LegendNANA
07:00 Legend Double Dagger 6.7 6.7 100 9 4 24.1 101.69     LegendNANA
08:00 Legend Double Dagger 9.2 8.1 93 36 2 24.1 101.68     Cloudy
09:00 Legend Double Dagger 11.6 8.5 81 36 2 24.1 101.68     LegendNANA
10:00 Legend Double Dagger 16.0 7.8 58 14 4 24.1 101.64     LegendNANA
11:00 Legend Double Dagger 17.1 6.4 49 36 2 24.1 101.62     Cloudy
12:00 Legend Double Dagger 18.1 7.6 50 17 6 24.1 101.56     LegendNANA
13:00 Legend Double Dagger 18.1 8.5 53 17 10 24.1 101.50     LegendNANA
14:00 Legend Double Dagger 17.2 8.2 55 22 7 24.1 101.45     Mostly Cloudy
15:00 Legend Double Dagger 16.7 7.7 55 21 7 24.1 101.40     LegendNANA
16:00 Legend Double Dagger 16.5 8.0 57 16 3 24.1 101.36     LegendNANA
17:00 Legend Double Dagger 16.1 8.9 62 18 5 24.1 101.34     Cloudy
18:00 Legend Double Dagger 14.0 9.5 74 9 5 24.1 101.30     LegendNANA
19:00 Legend Double Dagger 13.2 10.6 84 36 2 24.1 101.28     LegendNANA
20:00 Legend Double Dagger 11.2 10.4 95 7 5 19.3 101.23     Cloudy
21:00 Legend Double Dagger 11.3 11.2 99 6 5 19.3 101.22     LegendNANA
22:00 Legend Double Dagger 11.4 11.4 100 2 5 16.1 101.18     Rain Showers
23:00 Legend Double Dagger 11.0 11.0 100 7 4 19.3 101.15     Cloudy

Notes on Data Quality.

Legend

  • E = Estimated
  • M = Missing
  • NA = Not Available
  • ‡ = Partner data that is not subject to review by the National Climate Archives
Date modified: